Hourly Data Report for October 12, 2015

All times are specified in Local Standard Time (LST). Add 1 hour to adjust for Daylight Saving Time where and when it is observed.

BATHURST A
NEW BRUNSWICK

47°37'47.000" N
65°44'20.000" W
58.80 m
8100505
71574
ZBF

Download Data

Hourly Data (October 2015)
Hourly Data Report for October 12, 2015
Temp Definition
°C
Dew Point Temp Definition
°C
Rel Hum Definition
%
Wind Dir Definition
10's deg

Wind Spd Definition
km/h
Visibility Definition
km
Stn Press Definition
kPa
Hmdx Definition


Wind Chill Definition


Weather Definition


TIME
00:00 Legend Double Dagger 7.2 6.2 93 22 3 24.1 99.98     LegendNANA
01:00 Legend Double Dagger 7.0 6.3 95 17 7 24.1 100.00     LegendNANA
02:00 Legend Double Dagger 6.9 5.9 93 19 4 24.1 100.00     Cloudy
03:00 Legend Double Dagger 6.9 6.0 94 22 5 19.3 99.99     LegendNANA
04:00 Legend Double Dagger 6.6 5.9 95 17 3 24.1 99.97     LegendNANA
05:00 Legend Double Dagger 6.5 5.9 96 10 3 24.1 100.02     Cloudy
06:00 Legend Double Dagger 6.8 6.2 96 23 4 19.3 100.05     LegendNANA
07:00 Legend Double Dagger 7.8 6.6 92 22 6 24.1 100.10     LegendNANA
08:00 Legend Double Dagger 8.5 7.1 91   0 24.1 100.09     Cloudy
09:00 Legend Double Dagger 10.1 7.7 85 19 5 24.1 100.09     LegendNANA
10:00 Legend Double Dagger 10.7 7.8 82 36 3 24.1 100.12     LegendNANA
11:00 Legend Double Dagger 13.0 8.9 76 16 10 24.1 100.09     Mostly Cloudy
12:00 Legend Double Dagger 13.6 9.3 75 18 12 24.1 100.06     LegendNANA
13:00 Legend Double Dagger 15.0 10.5 74 15 5 24.1 100.00     LegendNANA
14:00 Legend Double Dagger 16.3 11.3 72 16 10 24.1 99.97     Cloudy
15:00 Legend Double Dagger 16.4 10.8 69 19 15 24.1 99.96     LegendNANA
16:00 Legend Double Dagger 15.9 10.9 72 15 9 24.1 99.95     LegendNANA
17:00 Legend Double Dagger 15.6 11.2 75 17 11 24.1 99.98     Cloudy
18:00 Legend Double Dagger 15.1 10.8 75 20 10 24.1 99.96     LegendNANA
19:00 Legend Double Dagger 14.6 10.7 77 19 8 19.3 100.01     LegendNANA
20:00 Legend Double Dagger 14.6 10.9 78 20 10 19.3 100.03     Cloudy
21:00 Legend Double Dagger 14.2 10.8 80 19 9 24.1 100.06     LegendNANA
22:00 Legend Double Dagger 13.0 10.7 86 19 6 24.1 100.07     LegendNANA
23:00 Legend Double Dagger 11.5 10.4 93 19 7 19.3 100.07     Clear

Notes on Data Quality.

Legend

  • E = Estimated
  • M = Missing
  • NA = Not Available
  • ‡ = Partner data that is not subject to review by the National Climate Archives
Date modified: